Datetime,EastMidlands,SouthWales,SouthWest,WestMidlands
2022-11-29 00:00:00,2517.76486,1050.122925,1242.5338800000002,2440.1788399999996
2022-11-29 00:05:00,2524.30648,1058.4536166666667,1273.7069800000002,2440.66166
2022-11-29 00:10:00,2520.52656,1061.921825,1290.01044,2440.258375
2022-11-29 00:15:00,2515.0796999999993,1072.0688833333331,1291.34198,2443.2590666666665
2022-11-29 00:20:00,2510.26012,1065.6051400000001,1289.2291200000002,2438.3917
2022-11-29 00:25:00,2516.53655,1073.75084,1286.9685749999999,2445.0499
2022-11-29 00:30:00,2562.4734666666664,1107.93598,1297.91608,2481.6194666666665
2022-11-29 00:35:00,2602.9782800000003,1131.33514,1307.9051,2505.15332
2022-11-29 00:40:00,2612.79014,1112.92508,1308.47876,2512.5792
2022-11-29 00:45:00,2616.45168,1119.89326,1310.1617,2520.91248
2022-11-29 00:50:00,2610.4638,1138.8942200000001,1304.81808,2518.52834
2022-11-29 00:55:00,2614.8668599999996,1182.79702,1301.1784199999997,2518.91248
2022-11-29 01:00:00,2615.7979600000003,1177.69754,1297.2535400000002,2513.6895750000003
2022-11-29 01:05:00,2618.52778,1169.8877,1295.9278,2511.9013666666665
2022-11-29 01:10:00,2607.3916999999997,1116.3571,1290.19434,2506.75334
2022-11-29 01:15:00,2593.13234,1084.4459599999998,1277.07104,2489.09416
2022-11-29 01:20:00,2587.15014,1072.7742400000002,1267.68368,2476.31002
2022-11-29 01:25:00,2580.48792,1073.57212,1262.8236000000002,2475.91338
2022-11-29 01:30:00,2583.54162,1078.287775,1259.59952,2471.0225600000003
2022-11-29 01:35:00,2591.96818,1067.5746166666665,1258.0860400000001,2472.2108200000002
2022-11-29 01:40:00,2581.48434,1064.1092399999998,1252.9934250000001,2467.09166
2022-11-29 01:45:00,2581.33998,1045.1978800000002,1249.0755166666665,2463.78418
2022-11-29 01:50:00,2589.23782,1038.93824,1261.0281200000002,2454.65886
2022-11-29 01:55:00,2581.8205000000003,1053.14652,1261.44864,2459.36724
2022-11-29 02:00:00,2580.65165,1062.4370999999999,1251.2108199999998,2453.2355199999997
2022-11-29 02:05:00,2578.4867000000004,1056.3441200000002,1259.06078,2448.5892000000003
2022-11-29 02:10:00,2562.0483,1063.052275,1255.1147799999999,2441.0491800000004
2022-11-29 02:15:00,2551.739,1062.22685,1252.5189,2443.67998
2022-11-29 02:20:00,2534.12664,1044.2513,1245.4477200000001,2443.4741999999997
2022-11-29 02:25:00,2526.56302,1062.15912,1245.34858,2439.2290999999996
2022-11-29 02:30:00,2522.5773599999998,1083.2914999999998,1230.6358,2440.39086
2022-11-29 02:35:00,2515.92552,1095.2977999999998,1228.20444,2437.20506
2022-11-29 02:40:00,2517.8294199999996,1088.77572,1230.96046,2428.45664
2022-11-29 02:45:00,2512.37518,1074.20336,1229.4858199999999,2426.20746
2022-11-29 02:50:00,2495.6992600000003,1081.47154,1218.6772999999998,2418.0575
2022-11-29 02:55:00,2485.69634,1077.91726,1217.9140599999998,2425.3981
2022-11-29 03:00:00,2480.93414,1085.9894,1203.86972,2443.73212
2022-11-29 03:05:00,2481.65434,1077.5009166666666,1200.8517800000002,2442.9091799999997
2022-11-29 03:10:00,2480.332,1076.3388,1193.2471999999998,2442.40248
2022-11-29 03:15:00,2470.9166600000003,1069.2663200000002,1184.6191399999998,2434.80004
2022-11-29 03:20:00,2463.8163600000003,1075.23004,1176.3269400000001,2431.4334000000003
2022-11-29 03:25:00,2457.571,1076.49146,1173.0719,2424.07416
2022-11-29 03:30:00,2460.75498,1079.2585,1183.85504,2421.72086
2022-11-29 03:35:00,2452.26994,1111.18242,1179.70445,2428.0033399999998
2022-11-29 03:40:00,2451.08698,1099.8029000000001,1174.0805500000001,2423.3983
2022-11-29 03:45:00,2449.77464,1096.3502999999998,1172.0768199999998,2424.127025
2022-11-29 03:50:00,2447.51206,1082.0566,1171.86276,2427.31998
2022-11-29 03:55:00,2451.35768,1085.1069,1171.79566,2421.8562833333335
2022-11-29 04:00:00,2440.92016,1082.53636,1157.50142,2361.8942
2022-11-29 04:05:00,2442.3511399999998,1072.0366599999998,1162.9323600000002,2378.48914
2022-11-29 04:10:00,2438.34488,1049.75704,1157.90426,2372.47748
2022-11-29 04:15:00,2433.1868600000003,1076.18986,1154.82176,2369.90408
2022-11-29 04:20:00,2431.70002,1075.2101200000002,1149.06658,2367.7448249999998
2022-11-29 04:25:00,2432.34016,1054.51696,1149.3690500000002,2368.018733333333
2022-11-29 04:30:00,2431.1018200000003,1058.26056,1148.11325,2364.66582
2022-11-29 04:35:00,2434.12938,1062.05232,1147.0539800000001,2364.69662
2022-11-29 04:40:00,2436.21232,1057.63564,1144.48256,2367.2791399999996
2022-11-29 04:45:00,2439.9632199999996,1053.7270199999998,1143.65288,2363.6924599999993
2022-11-29 04:50:00,2447.65914,1053.72338,1145.47538,2370.42248
2022-11-29 04:55:00,2452.3543600000003,1097.6781999999998,1147.917425,2377.535325
2022-11-29 05:00:00,2487.76264,1109.51306,1159.2844666666667,2421.0847666666664
2022-11-29 05:05:00,2495.87748,1110.5982799999997,1162.34162,2416.88496
2022-11-29 05:10:00,2500.00436,1104.67462,1163.4595199999999,2418.007275
2022-11-29 05:15:00,2510.58814,1119.9586,1166.50916,2430.48615
2022-11-29 05:20:00,2519.94578,1117.5962800000002,1171.1353250000002,2443.75582
2022-11-29 05:25:00,2533.157975,1107.28602,1176.6738833333332,2455.88162
2022-11-29 05:30:00,2548.2557666666667,1070.767525,1184.62232,2458.396825
2022-11-29 05:35:00,2564.385425,1083.7537833333333,1189.6092400000002,2478.3992333333335
2022-11-29 05:40:00,2590.8944,1095.54426,1198.0835200000001,2486.74666
2022-11-29 05:45:00,2608.43616,1098.20044,1206.66454,2510.4999799999996
2022-11-29 05:50:00,2643.85388,1122.56626,1216.9806400000002,2526.51004
2022-11-29 05:55:00,2680.9183199999998,1141.3087799999998,1235.54755,2556.4656000000004
2022-11-29 06:00:00,2755.9246200000002,1168.56792,1270.67955,2636.6757166666666
2022-11-29 06:05:00,2817.65576,1186.12316,1296.272,2683.4091399999998
2022-11-29 06:10:00,2852.62036,1215.93218,1307.6986,2706.5600000000004
2022-11-29 06:15:00,2889.6593600000006,1238.00694,1324.5902,2735.9942
2022-11-29 06:20:00,2919.19648,1271.88886,1335.65755,2755.69584
2022-11-29 06:25:00,2956.2318,1282.6567,1352.90714,2780.15832
2022-11-29 06:30:00,3010.4613,1303.2714,1381.11278,2830.44336
2022-11-29 06:35:00,3061.2344999999996,1324.7221,1409.03116,2858.0766599999997
2022-11-29 06:40:00,3096.4308599999995,1328.7160600000002,1428.2382000000002,2887.0308999999997
2022-11-29 06:45:00,3142.8495199999998,1340.42722,1448.3216800000002,2911.8343750000004
2022-11-29 06:50:00,3175.5089,1359.5782199999999,1470.9477200000001,2940.3722333333335
2022-11-29 06:55:00,3149.95844,1354.1862,1484.9817,2963.70786
2022-11-29 07:00:00,3193.90482,1312.22982,1497.24,3000.1118500000002
2022-11-29 07:05:00,3261.7448400000003,1333.6153,1523.3882999999998,3039.98758
2022-11-29 07:10:00,3305.41264,1340.1939,1545.8920833333332,3091.1326166666663
2022-11-29 07:15:00,3325.81638,1363.36765,1570.42906,3115.12834
2022-11-29 07:20:00,3335.8595199999995,1391.0288166666667,1591.26036,3127.511525
2022-11-29 07:25:00,3364.1526599999997,1413.79252,1588.924,3150.9550000000004
2022-11-29 07:30:00,3383.1238000000003,1440.3892,1593.7235,3168.493733333333
2022-11-29 07:35:00,3375.43002,1423.05334,1605.42946,3178.55328
2022-11-29 07:40:00,3421.1738399999995,1434.42816,1612.830783333333,3196.5675199999996
2022-11-29 07:45:00,3430.9945000000007,1469.81844,1614.70472,3217.5991599999998
2022-11-29 07:50:00,3444.73834,1482.8999800000001,1619.51208,3214.22918
2022-11-29 07:55:00,3465.0944000000004,1518.4801400000001,1627.4516,3228.7166599999996
2022-11-29 08:00:00,3466.65212,1539.20422,1640.2669000000003,3274.2174800000003
2022-11-29 08:05:00,3490.9399,1535.11332,1650.3808250000002,3277.07082
2022-11-29 08:10:00,3516.3450249999996,1518.16606,1657.5070166666667,3292.24246
2022-11-29 08:15:00,3525.2202833333336,1523.04484,1662.4813399999998,3304.4841800000004
2022-11-29 08:20:00,3535.5502,1520.42326,1669.39682,3319.4733
2022-11-29 08:25:00,3540.4023399999996,1528.19724,1666.0613799999999,3318.3275200000003
2022-11-29 08:30:00,3537.9418400000004,1532.1750800000002,1661.8705000000002,3310.26256
2022-11-29 08:35:00,3550.33966,1548.6549600000003,1659.0756499999998,3314.73502
2022-11-29 08:40:00,3562.95536,1540.7035600000002,1663.4198999999999,3333.7883
2022-11-29 08:45:00,3558.89352,1540.2263399999997,1659.10032,3345.9125199999994
2022-11-29 08:50:00,3592.7246,1553.71146,1656.86188,3352.1241800000003
2022-11-29 08:55:00,3599.30412,1568.1461800000002,1662.7272600000001,3352.7208400000004
2022-11-29 09:00:00,3629.0150399999998,1560.27176,1665.8973599999997,3381.1717000000003
2022-11-29 09:05:00,3650.11228,1531.49198,1672.1038199999998,3400.3974799999996
2022-11-29 09:10:00,3660.3836800000004,1537.7947799999997,1681.17634,3412.96996
2022-11-29 09:15:00,3654.85498,1542.60402,1681.84514,3422.90088
2022-11-29 09:20:00,3662.9376199999997,1523.7248000000004,1681.0576800000003,3436.6516600000004
2022-11-29 09:25:00,3653.2778399999997,1510.0266800000002,1678.2655,3439.09586
2022-11-29 09:30:00,3664.6009400000003,1504.04358,1672.9109400000002,3439.10432
2022-11-29 09:35:00,3677.3105000000005,1487.9485799999998,1668.1680600000004,3433.9708
2022-11-29 09:40:00,3685.93784,1455.0690799999998,1660.7108200000002,3429.3041249999997
2022-11-29 09:45:00,3688.3130399999995,1453.32986,1654.8185250000001,3435.4534666666673
2022-11-29 09:50:00,3690.88566,1457.12748,1647.1219833333334,3427.4758199999997
2022-11-29 09:55:00,3697.87506,1453.36034,1644.3981600000002,3425.7508399999997
2022-11-29 10:00:00,3689.50864,1462.6298,1641.3613799999998,3481.51748
2022-11-29 10:05:00,3674.14332,1459.0413199999998,1639.7629000000002,3491.2045
2022-11-29 10:10:00,3678.6733200000003,1465.5039000000002,1633.0306,3492.8217000000004
2022-11-29 10:15:00,3679.6553599999997,1476.66886,1628.5072400000001,3495.0374600000005
2022-11-29 10:20:00,3684.033575,1479.27576,1629.83416,3493.45334
2022-11-29 10:25:00,3691.6213666666667,1474.55088,1631.7483,3498.98252
2022-11-29 10:30:00,3706.15,1472.50394,1629.85422,3504.6116200000006
2022-11-29 10:35:00,3691.5422200000003,1473.24278,1621.70066,3516.9533199999996
2022-11-29 10:40:00,3699.3441399999997,1487.5609399999998,1619.15192,3514.7466200000003
2022-11-29 10:45:00,3698.44562,1503.632525,1612.2426200000002,3516.29418
2022-11-29 10:50:00,3702.9629800000002,1499.0505666666668,1612.6203249999999,3509.7802
2022-11-29 10:55:00,3709.94398,1486.0846999999999,1611.9543,3503.897916666667
2022-11-29 11:00:00,3710.4822599999998,1475.21322,1612.97176,3447.7011
2022-11-29 11:05:00,3721.2399399999995,1494.0373600000003,1618.57382,3443.195833333333
2022-11-29 11:10:00,3719.7082600000003,1485.06588,1613.4526600000002,3448.33496
2022-11-29 11:15:00,3728.1765399999995,1491.93208,1610.8408000000002,3447.43242
2022-11-29 11:20:00,3719.8525,1505.4052800000002,1611.25672,3454.7033600000004
2022-11-29 11:25:00,3732.8484000000003,1499.1223599999998,1608.93246,3454.66918
2022-11-29 11:30:00,3738.98848,1505.814825,1600.949875,3452.34914
2022-11-29 11:35:00,3728.21414,1506.0473,1600.9343166666665,3449.97086
2022-11-29 11:40:00,3735.11734,1520.1705499999998,1596.32688,3444.6083200000003
2022-11-29 11:45:00,3743.65516,1525.35322,1595.8307399999999,3461.7016799999997
2022-11-29 11:50:00,3732.83414,1518.2576999999999,1598.5515200000002,3465.50918
2022-11-29 11:55:00,3733.65982,1521.25844,1600.37358,3461.3042
2022-11-29 12:00:00,3755.8843800000004,1513.8538,1596.2761999999998,3470.8652666666662
2022-11-29 12:05:00,3774.5756800000004,1506.70244,1605.3116400000001,3481.9908000000005
2022-11-29 12:10:00,3758.42944,1478.6847999999998,1601.7271200000002,3485.72004
2022-11-29 12:15:00,3754.8074800000004,1484.76532,1594.16226,3481.3525199999995
2022-11-29 12:20:00,3767.5547400000005,1484.9786200000003,1597.2848600000002,3478.9416599999995
2022-11-29 12:25:00,3764.2712,1483.10354,1598.00228,3481.86834
2022-11-29 12:30:00,3764.01866,1484.696375,1596.70246,3489.36668
2022-11-29 12:35:00,3757.01682,1487.0785666666668,1595.07568,3484.1608800000004
2022-11-29 12:40:00,3748.310825,1494.28978,1595.1968,3478.55496
2022-11-29 12:45:00,3727.4891000000002,1490.3644800000002,1594.372266666667,3475.4983399999996
2022-11-29 12:50:00,3742.4447,1483.49878,1594.8768400000001,3470.1475400000004
2022-11-29 12:55:00,3742.18336,1494.5518200000001,1598.7321200000001,3461.9187500000003
2022-11-29 13:00:00,3787.47318,1491.04852,1606.85812,3458.8360666666667
2022-11-29 13:05:00,3798.0775,1490.50912,1610.6484999999998,3460.19834
2022-11-29 13:10:00,3788.7384500000003,1475.49728,1604.6119999999999,3444.25414
2022-11-29 13:15:00,3774.7336200000004,1471.82356,1596.53138,3428.2991
2022-11-29 13:20:00,3750.9482000000003,1478.0189599999999,1591.5545,3431.1233399999996
2022-11-29 13:25:00,3733.88298,1467.58282,1593.9951999999998,3443.606275
2022-11-29 13:30:00,3740.5815000000002,1475.9447599999999,1593.78626,3449.8472500000003
2022-11-29 13:35:00,3749.1438000000003,1470.6020199999998,1596.8466999999998,3456.4824999999996
2022-11-29 13:40:00,3749.3218,1480.11306,1598.7908,3446.9525399999998
2022-11-29 13:45:00,3743.19548,1477.9148200000002,1600.7420200000001,3450.0569600000003
2022-11-29 13:50:00,3745.23168,1480.9718400000002,1599.19536,3439.92088
2022-11-29 13:55:00,3723.4988199999993,1477.2725,1599.03154,3443.0900799999995
2022-11-29 14:00:00,3704.09116,1466.3091,1599.76018,3440.1787400000003
2022-11-29 14:05:00,3689.7152800000003,1466.23498,1599.6823,3422.2567500000005
2022-11-29 14:10:00,3693.60186,1457.21316,1609.4186,3434.8951333333334
2022-11-29 14:15:00,3690.62952,1461.18572,1610.0674000000004,3431.0443
2022-11-29 14:20:00,3699.1433599999996,1450.48976,1612.61248,3433.256225
2022-11-29 14:25:00,3690.6754400000004,1455.9109599999997,1608.72026,3423.578433333334
2022-11-29 14:30:00,3687.5435600000005,1459.1062,1606.022875,3423.893775
2022-11-29 14:35:00,3690.1153400000003,1457.2497,1617.117,3431.777066666667
2022-11-29 14:40:00,3713.8445,1463.9746200000002,1616.2416,3424.12418
2022-11-29 14:45:00,3690.9286999999995,1460.1016,1621.80092,3423.5883000000003
2022-11-29 14:50:00,3713.48052,1466.27986,1623.1227800000001,3422.58084
2022-11-29 14:55:00,3701.2098400000004,1465.91702,1626.4511599999998,3423.17002
2022-11-29 15:00:00,3695.1988000000006,1462.1571800000002,1630.44616,3460.60754
2022-11-29 15:05:00,3694.8196199999998,1493.1637800000003,1639.7549800000002,3499.2558
2022-11-29 15:10:00,3695.2752800000003,1443.0665400000003,1640.09406,3500.22332
2022-11-29 15:15:00,3696.909375,1447.135575,1646.05282,3480.1483200000002
2022-11-29 15:20:00,3698.26745,1452.76055,1654.6269,3486.04162
2022-11-29 15:25:00,3721.3480600000003,1458.4231,1660.50346,3489.06664
2022-11-29 15:30:00,3743.34566,1471.5865399999998,1659.66172,3481.32494
2022-11-29 15:35:00,3762.06964,1485.2041199999999,1668.7013,3510.0875
2022-11-29 15:40:00,3791.1172600000004,1501.2759599999997,1688.7756000000002,3534.3874399999995
2022-11-29 15:45:00,3821.2717600000005,1504.44934,1697.08966,3548.80832
2022-11-29 15:50:00,3839.4547599999996,1503.00108,1711.2516833333332,3555.22088
2022-11-29 15:55:00,3837.10118,1505.8156999999999,1723.7459000000003,3569.2025399999998
2022-11-29 16:00:00,3891.5279600000003,1485.1594,1755.7223399999998,3575.78836
2022-11-29 16:05:00,3908.0241800000003,1485.2895199999998,1776.48138,3589.51084
2022-11-29 16:10:00,3897.2456599999996,1489.98792,1783.6114000000002,3602.19248
2022-11-29 16:15:00,3897.52948,1504.3805800000002,1786.8635749999999,3637.50418
2022-11-29 16:20:00,3932.46216,1510.99254,1824.3472333333336,3654.2908800000005
2022-11-29 16:25:00,3931.58016,1521.5289400000001,1845.6412800000003,3637.2808000000005
2022-11-29 16:30:00,3927.67868,1522.8053,1845.5402399999998,3633.60244
2022-11-29 16:35:00,3950.3938200000002,1528.76378,1866.8827400000002,3630.48834
2022-11-29 16:40:00,3929.3028,1566.00434,1881.5475,3625.14375
2022-11-29 16:45:00,3949.1830199999995,1591.13062,1898.86408,3638.5566599999997
2022-11-29 16:50:00,3969.70728,1594.0783399999998,1911.2714200000003,3646.2069500000002
2022-11-29 16:55:00,3959.17002,1599.5701199999999,1921.546975,3644.41975
2022-11-29 17:00:00,3987.60485,1607.14386,1942.2640833333335,3657.913883333333
2022-11-29 17:05:00,3976.6502166666664,1595.2043600000002,1953.1369599999998,3667.4266599999996
2022-11-29 17:10:00,3969.3143000000005,1584.0571,1961.01402,3667.09
2022-11-29 17:15:00,3953.73854,1581.00658,1965.77868,3671.415
2022-11-29 17:20:00,3958.9532,1583.6134000000002,1964.87848,3669.8091799999993
2022-11-29 17:25:00,3952.96584,1583.27072,1966.6924800000002,3668.89006
2022-11-29 17:30:00,3942.2694,1598.7393200000001,1965.70454,3668.04502
2022-11-29 17:35:00,3931.30318,1624.46004,1965.93632,3664.71975
2022-11-29 17:40:00,3910.35916,1619.73274,1964.1122199999998,3669.942983333333
2022-11-29 17:45:00,3898.87136,1619.12304,1962.39108,3671.00328
2022-11-29 17:50:00,3883.62126,1618.92642,1959.99282,3658.17664
2022-11-29 17:55:00,3873.8754200000003,1611.93306,1959.31382,3640.08752
2022-11-29 18:00:00,3859.37566,1616.67924,1957.0229599999998,3624.67834
2022-11-29 18:05:00,3855.93364,1617.76862,1957.43918,3626.827075
2022-11-29 18:10:00,3829.2703199999996,1612.1426800000002,1951.7586799999997,3623.6513833333333
2022-11-29 18:15:00,3798.63148,1611.82392,1945.50358,3613.2083599999996
2022-11-29 18:20:00,3784.3677,1607.10784,1934.85964,3596.79914
2022-11-29 18:25:00,3780.2786399999995,1603.05612,1922.10546,3572.30935
2022-11-29 18:30:00,3780.864,1595.32872,1913.2957999999999,3549.0458
2022-11-29 18:35:00,3766.26272,1589.5699,1907.38866,3538.6800000000003
2022-11-29 18:40:00,3786.57814,1591.23118,1903.5089,3543.6733200000003
2022-11-29 18:45:00,3789.68966,1592.8383,1909.0480666666665,3541.7333399999998
2022-11-29 18:50:00,3774.2865599999996,1586.29232,1897.41398,3524.4841800000004
2022-11-29 18:55:00,3749.08514,1556.84126,1882.6080399999998,3493.7241999999997
2022-11-29 19:00:00,3681.8025000000002,1537.8346000000001,1842.7156200000002,3461.7692
2022-11-29 19:05:00,3655.90694,1521.1644200000003,1820.7320599999998,3419.69916
2022-11-29 19:10:00,3650.76484,1517.8597,1806.9530599999998,3386.6899999999996
2022-11-29 19:15:00,3625.9549400000005,1497.79146,1791.851,3363.4149399999997
2022-11-29 19:20:00,3597.5092000000004,1486.0189,1774.26766,3335.2917
2022-11-29 19:25:00,3631.96348,1470.67408,1762.1677,3330.2258
2022-11-29 19:30:00,3646.3663800000004,1454.9990800000003,1747.4989600000001,3293.39254
2022-11-29 19:35:00,3637.09804,1445.78942,1745.58252,3280.176639999999
2022-11-29 19:40:00,3620.52108,1412.29212,1737.95926,3263.5683799999997
2022-11-29 19:45:00,3611.5084599999996,1397.49502,1743.30926,3256.8083399999996
2022-11-29 19:50:00,3650.4303600000007,1391.65548,1761.3939999999998,3281.4557999999997
2022-11-29 19:55:00,3662.6299400000003,1398.9923600000002,1760.6159400000001,3308.6479500000005
2022-11-29 20:00:00,3614.7485,1385.06842,1726.68906,3271.42424
2022-11-29 20:05:00,3551.3813200000004,1371.1706,1709.20874,3239.93914
2022-11-29 20:10:00,3487.75364,1360.93992,1680.4089800000002,3197.1892000000003
2022-11-29 20:15:00,3455.5879999999997,1386.7317600000001,1665.15138,3186.71086
2022-11-29 20:20:00,3430.5751600000003,1395.39872,1642.9639200000001,3167.0767
2022-11-29 20:25:00,3411.0636399999994,1379.86312,1621.0451600000001,3148.84336
2022-11-29 20:30:00,3393.45444,1352.79124,1597.9433999999999,3124.71336
2022-11-29 20:35:00,3376.65052,1366.0935599999998,1588.7882800000002,3132.3925000000004
2022-11-29 20:40:00,3361.4885200000003,1356.0442249999999,1581.32564,3140.0125199999998
2022-11-29 20:45:00,3334.1430199999995,1351.7107333333333,1570.5520000000001,3131.34914
2022-11-29 20:50:00,3321.6068199999995,1342.5163,1572.8394199999998,3122.29175
2022-11-29 20:55:00,3338.53932,1343.9094799999998,1578.62882,3129.022933333333
2022-11-29 21:00:00,3315.20136,1340.15516,1553.6974599999999,3112.4334
2022-11-29 21:05:00,3282.64628,1337.60834,1544.20406,3102.65248
2022-11-29 21:10:00,3264.8094200000005,1329.3156999999999,1536.98392,3096.54754
2022-11-29 21:15:00,3252.19136,1345.08436,1526.5907599999998,3075.31164
2022-11-29 21:20:00,3256.6753400000002,1339.3634200000001,1513.42498,3059.16082
2022-11-29 21:25:00,3265.0653599999996,1329.8156999999999,1501.38948,3042.15744
2022-11-29 21:30:00,3248.59584,1336.71354,1496.0352599999999,3027.2208
2022-11-29 21:35:00,3215.2626800000003,1324.26538,1482.07402,3012.29252
2022-11-29 21:40:00,3182.72432,1313.99892,1468.8352200000002,2992.96078
2022-11-29 21:45:00,3151.23536,1299.28106,1452.85614,2967.8191400000005
2022-11-29 21:50:00,3111.65942,1282.11452,1441.43874,2943.92334
2022-11-29 21:55:00,3077.58852,1262.18102,1427.5175800000002,2916.0567
2022-11-29 22:00:00,3075.92184,1228.04034,1409.97184,2894.1974400000004
2022-11-29 22:05:00,3047.3921199999995,1231.4355,1395.58536,2869.8183399999994
2022-11-29 22:10:00,3008.6858,1217.85184,1380.1267400000002,2850.79668
2022-11-29 22:15:00,2981.25382,1204.56108,1363.02114,2826.6916399999996
2022-11-29 22:20:00,2944.47532,1199.71138,1351.7998200000002,2806.8383999999996
2022-11-29 22:25:00,2905.951,1185.07652,1330.8193800000001,2782.6941
2022-11-29 22:30:00,2891.0298000000003,1174.57288,1325.3121999999998,2754.99422
2022-11-29 22:35:00,2855.19598,1159.5909399999998,1316.0159200000003,2729.3550000000005
2022-11-29 22:40:00,2832.15588,1151.89175,1307.6481399999998,2707.4916200000002
2022-11-29 22:45:00,2809.8403599999997,1155.23285,1295.6601600000001,2686.13164
2022-11-29 22:50:00,2791.6533000000004,1142.9395200000001,1286.3685600000001,2669.1883399999997
2022-11-29 22:55:00,2755.05348,1157.4272799999999,1270.10316,2646.86576
2022-11-29 23:00:00,2728.47512,1150.1682800000003,1259.13888,2625.79638
2022-11-29 23:05:00,2714.33284,1151.91342,1256.42222,2622.3242
2022-11-29 23:10:00,2694.425,1097.4578000000001,1243.6966,2604.8358599999997
2022-11-29 23:15:00,2675.9984799999997,1085.17942,1232.90686,2585.22088
2022-11-29 23:20:00,2680.85426,1085.4170000000001,1232.71512,2593.50504
2022-11-29 23:25:00,2660.5227999999997,1075.76168,1217.5818199999999,2577.29375
2022-11-29 23:30:00,2620.8480799999998,1066.25664,1198.7252199999998,2554.8208666666665
2022-11-29 23:35:00,2607.17848,1076.98228,1192.6687200000001,2534.42664
2022-11-29 23:40:00,2597.4576800000004,1066.09826,1182.45278,2517.0950399999997
2022-11-29 23:45:00,2580.1500800000003,1070.64616,1179.3583250000001,2505.667725
2022-11-29 23:50:00,2566.58996,1075.7792599999998,1178.8489833333333,2495.3332833333334
2022-11-29 23:55:00,2557.55354,1041.1636600000002,1177.78645,2487.17244
